CZ-3B DEB, 39335

Orbit data source: Space-Track

CZ-3B DEB, 39335 is space debris in HEO originally from a launch on Sat, 04 Sep 2010 UTC launched from the Xichang Space Center, China (XSC). Debris objects in space refer to the collection of defunct objects orbiting the Earth. Examples of debris include non-operational satellites, rocket bodies, and fragments generated from explosions, collisions, or faulty payload assembly.

Loading next visibility...
Identifier
39335, 2010-042G
Orbit
HEO
Country
Flag of CNCN / PRC
Related business
Manufacturer
CALT
Mission
Spacecraft
Bus & Motor
Unknown
Mass
Unknown
Launch date (UTC)
2010-09-04 (15 years ago)
Launch vehicle
Unknown
Launch site
Xichang Space Center, China (XSC)
Object type
Payload
Rocket body
Debris
Shape & HBR
Unknown shape, 0.2 m
Radar Cross Section
Medium (>0.1 m² and <1 m²)

Expand to show TLE details & history
Last TLE update: 1 month ago

TLE from 1 month ago
0 CZ-3B DEB
1 39335U 10042G   25300.14381598 -.00000329  00000-0  30017-2 0  9997
2 39335  27.7013  99.8923 7335788 219.1485 353.4738  1.97562470 79444
Epoch: 2025-10-27T03:27Z
TLE epoch observation values (Epoch: 2025-10-27T03:27:05.700Z)
Latitude
7.16134°
Longitude
178.45224°
Altitude
2,361.107 km
Speed
8.739 km/s
True Right ascension
17h 43m 54s
True Declination
7° 07' 36"
Sunlit
Object was in daylight at epoch
Visualization orbit readout
Latitude
Unknown
Longitude
Unknown
Altitude
Unknown
Speed
Unknown
Apparent Right ascension
Unknown
Apparent Declination
Unknown
Sunlit
N/A
Visualization observer readout
Local Sidereal Time
05:24:40
Azimuth
Unknown
Elevation
Unknown
Doppler factor
Unknown
Orbital elements
Apogee altitude
40,137.605 km
Perigee altitude
770.531 km
Semi-major axis
26,832.205 km
Eccentricity
0.73358
Inclination
27.7013°
RAAN
99.8923°
Arg. of periapsis
219.1485°
True anomaly
305.47266°
Mean anomaly
353.4738°
Eccentric anomaly
337.15722°
Mean motion
0.49381 °/min
Orbital period
729.03 mins
BSTAR
0.0030017
Loading maneuver chart data...
Computing Atmospheric mass density...
Loading historical data...
Loading historical data...
Loading historical data...
Loading historical data...
Loading historical data...
Loading historical data...
Loading historical data...

Documentation

Showing up to 5 results
|